Weather in Velikaya Guba

Russia / Republic of Karelia     62°14′55″N   35°04′12″E
temp.,
°C
wind,
m/s
gust,
m/s
humid.,
%
clouds,
%
prec.,
mm/h
press.,
hPa
HPBL,
m
1 march, mon
mon100:000wsw379682 0.0 1015298
03:000wsw5119489 0.0 1014430
06:00+1w4119797 0.1 1011515
09:00+1w4129999 0.3 1010498
12:00+1w41099100 0.0 1008477
15:00+1w51399100 0.1 1007601
18:00+1w51399100 0.1 1004561
21:00+1w61399100 0.3 1003755
2 march, tue
tue200:000wnw6148463 0.1 1002650
03:00−2wnw5158731 0.1 1003530
06:00−3wnw513870 0.0 1002570
09:00−3wnw5128812 0.0 1003644
12:00−1nw61283100 0.1 10041444
15:00−2nnw6127898 0.3 10071206
18:00−4nnw5128398 0.0 1009868
21:00−7nw4118573 0.0 1011265
3 march, wed
wed300:00−8wnw36930 0.0 1011121
03:00−7wnw399313 0.0 1011230
06:00−5wnw3109486 0.1 1009357
09:00−5nw4109382 0.1 1009459
12:00−3wnw479193 0.0 1008577
15:00−2wnw479097 0.1 1007702
18:00−4sw2391100 0.0 100441
21:00−4s2496100 0.0 99993
4 march, thu
thu400:00−3ese4797100 3.5 994307
03:00−3nne61194100 8.3 993639
06:00−6nnw5109497 0.3 994324
09:00−7n499389 0.3 995376
12:00−6n5109095 0.0 997553
15:00−5nnw5108895 0.0 999741
18:00−7nnw389295 0.1 1000279
21:00−9nnw389382 0.1 1002224
5 march, fri
fri500:00−12nnw259755 0.0 100386
03:00−13n239576 0.0 100541
06:00−16nnw229291 0.0 100620
09:00−13nnw249594 0.1 1007156
12:00−10n248791 0.1 1010597
15:00−10n358393 0.1 1011729
18:00−14n239162 0.0 101321
21:00−15nnw229268 0.0 101521